Location: Chervonnoye
(48.6000°N, 34.4000°E)
Time: 15:45:09
(UTC+00:00)

Meteor 1-25 Rocket - Pass Details

Date: 23 November 2020
Orbit: 837 x 891 km, 81.2° (Epoch: 27 January)

Event Time Altitude Azimuth Distance (km) Brightness Sun altitude
Rises 15:51:47 0° 349° (N) 3,410 7.4 -18.9°
Reaches altitude 10° 15:54:13 10° 351° (N) 2,475 6.6 -19.3°
Maximum altitude 15:59:50 75° 77° (ENE) 883 4.1 -20.3°
Drops below altitude 10° 16:05:28 10° 163° (SSE) 2,488 6.5 -21.2°
Sets 16:07:55 0° 165° (SSE) 3,429 7.3 -21.6°
